SCP
0 0 0 0 0 0 0 0 0 0 0 0 0 0 0 0 0 0 0 0 0 0 0 0 0 0 0 0 0 0 0 0 0 0 0 0 0 0 0 0 0 0 0 0 0 0 0 0 0
0 0 0 0 0 0 0 0 0 0 0 0 0 0 0 0 0 0 0 0 0 0 0 0 0 0 0 0 0 0 0 0 0 0 0 0 0 0 0 0 0 0 0 0 0 0 0 0 0
0 0 0 0 0 0 0 0 0 0 0 0 0 0 0 0 0 0 0 0 0 0 0 0 0 0 0 0 0 0 0 0 0 0 0 0 0 0 0 0 0 0 0 0 0 0 0 0 0
0 0 0 0 0 0 0 0 0 0 0 0 0 0 0 0 0 0 0 0 0 0 0 0 0 0 0 0 0 0 0 0 0 0 0 0 0 0 0 0 0 0 0 0 0 0 0 0 0
0 0 0 0 0 0 0 0 0 0 0 0 0 0 0 0 0 0 0 0 0 0 0 0 0 0 0 0 0 0 0 0 0 0 0 0 0 0 0 0 0 0 0 0 0 0 0 0 0
0 0 0 0 0 0 0 0 0 0 0 0 0 0 0 0 0 0 0 0 0 0 0 0 0 0 0 0 0 0 0 0 0 0 0 0 0 0 0 0 0 0 0 0 0 0 0 0 0
0 0 0 0 0 0 0 0 0 0 0 0 0 0 0 0 0 0 0 0 0 0 0 0 0 0 0 0 0 0 0 0 0 0 0 0 0 0 0 0 0 0 0 0 0 0 0 0 0
0 0 0 0 0 0 0 0 0 0 0 0 0 0 0 0 0 0 0 0 0 0 0 0 0 0 0 0 0 0 0 0 0 0 0 0 0 0 0 0 0 0 0 0 0 0 0 0 0
0 0 0 0 0 0 0 0 0 0 0 0 0 0 0 0 0 0 0 0 0 0 0 0 0 0 0 0 0 0 0 0 0 0 0 0 0 0 0 0 0 0 0 0 0 0 0 0 0
0 0 0 0 0 0 0 0 0 0 0 0 0 0 0 0 0 0 0 0 0 0 0 0 0 0 0 0 0 0 0 0 0 0 0 0 0 0 0 0 0 0 0 0 0 0 0 0 0
0 0 0 0 0 0 0 0 0 0 0 0 0 0 0 0 0 0 0 0 0 0 0 0 0 0 0 0 0 0 0 0 0 0 0 0 0 0 0 0 0 0 0 0 0 0 0 0 0
0 0 0 0 0 0 0 0 0 0 0 0 0 0 0 0 0 0 0 0 0 0 0 0 0 0 0 0 0 0 0 0 0 0 0 0 0 0 0 0 0 0 0 0 0 0 0 0 0
0 0 0 0 0 0 0 0 0 0 0 0 0 0 0 0 0 0 0 0 0 0 0 0 0 0 0 0 0 0 0 0 0 0 0 0 0 0 0 0 0 0 0 0 0 0 0 0 0
0 0 0 0 0 0 0 0 0 0 0 0 0 0 0 0 0 0 0 0 0 0 0 0 0 0 0 0 0 0 0 0 0 0 0 0 0 0 0 0 0 0 0 0 0 0 0 0 0
0 0 0 0 0 0 0 0 0 0 0 0 0 0 0 0 0 0 0 0 0 0 0 0 0 0 0 0 0 0 0 0 0 0 0 0 0 0 0 0 0 0 0 0 0 0 0 0 0
0 0 0 0 0 0 0 0 0 0 0 0 0 0 0 0 0 0 0 0 0 0 0 0 0 0 0 0 0 0 0 0 0 0 0 0 0 0 0 0 0 0 0 0 0 0 0 0 0
0 0 0 0 0 0 0 0 0 0 0 0 0 0 0 0 0 0 0 0 0 0 0 0 0 0 0 0 0 0 0 0 0 0 0 0 0 0 0 0 0 0 0 0 0 0 0 0 0
0 0 0 0 0 0 0 0 0 0 0 0 0 0 0 0 0 0 0 0 0 0 0 0 0 0 0 0 0 0 0 0 0 0 0 0 0 0 0 0 0 0 0 0 0 0 0 0 0
0 0 0 0 0 0 0 0 0 0 0 0 0 0 0 0 0 0 0 0 0 0 0 0 0 0 0 0 0 0 0 0 0 0 0 0 0 0 0 0 0 0 0 0 0 0 0 0 0
0 0 0 0 0 0 0 0 0 0 0 0 0 0 0 0 0 0 0 0 0 0 0 0 0 0 0 0 0 0 0 0 0 0 0 0 0 0 0 0 0 0 0 0 0 0 0 0 0
0 0 0 0 0 0 0 0 0 0 0 0 0 0 0 0 0 0 0 0 0 0 0 0 1 1 0 0 0 0 0 0 0 0 0 0 0 0 0 0 0 0 0 0 0 0 0 0 0
0 0 0 0 0 0 0 0 0 0 0 0 0 0 0 0 0 0 0 0 0 0 0 0 0 1 0 0 0 0 0 0 0 0 0 0 0 0 0 0 0 0 0 0 0 0 0 0 0
0 0 0 0 0 0 0 0 0 0 0 0 0 0 0 0 0 0 0 0 0 0 0 0 0 0 0 0 0 0 0 0 0 0 0 0 0 0 0 0 0 0 0 0 0 0 0 0 0
0 0 0 0 0 0 0 0 0 0 0 0 0 0 0 0 0 0 0 0 0 0 0 0 0 0 0 0 0 0 0 0 0 0 0 0 0 0 0 0 0 0 0 0 0 0 0 0 0
0 0 0 0 0 0 0 0 0 0 0 0 0 0 0 0 0 0 0 0 0 0 0 0 0 0 0 0 0 0 0 0 0 0 0 0 0 0 0 0 0 0 0 0 0 0 0 0 0
0 0 0 0 0 0 0 0 0 0 0 0 0 0 0 0 0 0 0 0 0 0 0 0 0 0 0 0 0 0 0 0 0 0 0 0 0 0 0 0 0 0 0 0 0 0 0 0 0
0 0 0 0 0 0 0 0 0 0 0 0 0 0 0 0 0 0 0 0 0 0 0 0 0 0 0 0 0 0 0 0 0 0 0 0 0 0 0 0 0 0 0 0 0 0 0 0 0
0 0 0 0 0 0 0 0 0 0 0 0 0 0 0 0 0 0 0 0 0 0 0 0 0 0 0 0 0 0 0 0 0 0 0 0 0 0 0 0 0 0 0 0 0 0 0 0 0
0 0 0 0 0 0 0 0 0 0 0 0 0 0 0 0 0 0 0 0 0 0 0 0 0 0 0 0 0 0 0 0 0 0 0 0 0 0 0 0 0 0 0 0 0 0 0 0 0
0 0 0 0 0 0 0 0 0 0 0 0 0 0 0 0 0 0 0 0 0 0 0 0 0 0 0 0 0 0 0 0 0 0 0 0 0 0 0 0 0 0 0 0 0 0 0 0 0
Wind_Speed
10 7 3 5 7 5 1 2 4 3 3 2 6 10 8 4 3 5 3 11 13 10 8 9 11 13 14 14 14 13 14 15 15 15 16 16 16 17 17 17 17 17 17 17 17 17 17 16 16
5 4 6 6 6 1 3 2 4 4 6 6 7 7 6 4 4 8 6 11 13 11 9 9 11 13 14 14 13 14 14 14 15 15 16 16 16 16 16 16 16 16 16 17 17 16 16 15 16
5 3 5 5 3 4 3 3 5 3 3 5 6 5 5 5 5 5 9 14 12 9 8 9 11 13 14 13 13 14 14 14 14 15 15 16 16 16 16 16 15 15 15 16 16 15 15 15 15
4 5 5 4 2 4 5 6 6 6 3 5 6 5 3 2 5 8 14 14 13 9 8 9 12 13 13 13 13 14 14 14 14 14 14 15 15 15 15 15 15 14 14 14 14 14 13 14 15
4 4 4 1 3 3 3 6 6 8 5 4 6 5 2 3 10 16 15 14 14 10 7 8 11 12 12 13 13 13 13 13 14 14 14 14 14 14 14 14 14 13 13 13 13 12 12 13 13
4 4 3 2 4 2 3 5 6 6 5 5 7 5 1 3 12 14 13 12 11 11 9 8 11 11 11 11 12 12 13 13 13 13 13 13 13 13 13 13 13 12 12 12 12 11 11 11 12
4 3 4 4 3 2 4 5 8 7 6 6 8 7 3 4 8 12 12 11 10 10 9 7 7 8 10 11 10 11 11 11 12 12 12 11 11 12 11 11 11 11 11 11 10 10 9 10 11
4 3 2 3 4 4 4 4 4 8 6 4 7 10 8 8 8 11 11 10 9 8 8 7 6 6 6 7 10 11 11 11 11 11 10 10 10 10 9 8 9 10 10 9 9 8 8 8 9
3 3 3 5 6 5 3 4 2 3 6 4 2 6 9 12 12 13 10 7 8 9 8 8 7 6 6 6 8 9 10 10 10 9 10 8 5 5 5 7 8 8 8 8 7 6 6 6 7
3 3 6 4 5 6 5 5 7 5 5 3 4 4 9 13 14 15 14 13 12 12 10 8 8 8 7 6 5 4 5 6 5 5 6 4 4 4 5 7 7 7 6 5 5 4 4 4 3
4 5 4 4 3 4 5 5 5 11 5 7 10 11 13 11 13 14 14 14 13 12 11 9 9 8 7 5 5 3 3 3 4 5 5 4 4 3 3 2 3 3 3 2 2 2 1 1 1
3 5 4 4 2 2 6 7 5 6 7 9 14 19 15 15 15 15 15 13 11 12 12 11 10 9 8 7 5 5 4 4 4 5 6 5 3 3 3 2 3 2 1 1 1 0 0 0 0
4 4 3 3 2 1 4 5 6 5 2 6 12 14 15 16 14 12 11 11 11 12 12 12 11 11 9 8 6 6 5 5 5 5 5 6 5 5 4 3 3 3 2 2 2 1 1 1 1
6 4 4 3 2 0 3 2 4 4 3 10 14 15 14 15 14 10 10 11 12 13 13 12 12 11 10 8 7 6 6 5 5 5 6 7 5 5 5 4 4 3 3 3 3 3 2 2 1
3 2 3 3 2 1 4 2 5 5 7 10 12 13 12 12 11 13 14 13 14 13 13 13 12 11 11 10 8 6 5 5 5 5 6 6 6 6 5 4 4 4 3 3 2 2 1 2 2
4 4 4 5 3 2 6 7 8 5 9 10 10 10 11 12 13 13 12 11 11 11 13 13 11 11 11 9 8 6 6 6 5 5 5 7 7 6 5 4 4 4 3 3 3 2 2 2 2
3 6 6 4 3 3 5 7 6 5 9 10 10 10 10 10 11 12 12 13 13 13 14 14 12 13 11 10 7 6 6 6 5 5 5 6 6 6 5 4 4 4 3 3 3 2 2 2 3
7 5 6 7 4 4 5 7 6 4 8 10 9 9 9 11 14 12 13 12 12 12 13 14 13 12 10 8 6 5 6 6 5 5 6 7 6 6 5 4 5 5 4 3 3 3 2 2 2
7 7 6 7 4 6 8 9 9 5 5 8 8 9 10 12 9 7 9 9 9 10 12 14 14 13 10 8 8 8 7 6 5 5 7 7 7 7 6 4 5 5 5 5 5 3 3 3 1
5 6 5 2 0 4 6 9 9 7 7 9 11 11 11 9 6 7 7 7 9 10 11 12 13 13 12 10 8 5 5 4 4 5 6 7 7 7 6 6 5 5 5 5 5 4 2 2 3
7 7 6 4 1 0 1 6 8 8 6 7 8 9 9 11 11 9 7 7 7 9 10 10 12 12 12 10 6 4 3 3 4 5 5 6 7 7 7 7 6 6 5 5 6 6 6 4 3
10 7 7 6 5 4 5 5 9 7 7 9 11 10 11 10 9 8 7 7 7 7 6 7 9 10 11 10 9 9 8 7 7 4 4 5 6 6 7 6 6 6 5 5 5 6 5 4 3
7 6 7 6 5 2 2 4 9 3 8 11 12 12 11 9 8 8 7 6 5 4 4 4 6 7 9 10 11 11 8 6 4 4 5 4 3 5 5 6 5 5 4 5 5 5 5 4 4
7 7 6 4 3 5 7 6 9 6 9 8 9 10 9 7 6 5 4 4 3 2 2 3 4 5 6 9 10 11 10 8 6 5 5 3 2 1 2 3 3 3 3 4 4 4 4 4 4
8 9 4 2 3 8 3 6 12 9 9 9 10 9 7 7 7 7 6 5 3 3 2 2 4 4 4 7 8 9 9 9 8 7 5 4 3 2 1 2 2 2 2 2 2 2 2 3 3
9 12 10 9 8 5 3 9 11 7 5 5 5 5 6 7 6 6 6 5 4 3 3 3 3 3 4 5 5 6 7 5 5 5 5 5 3 3 3 3 4 3 3 2 2 2 1 1 1
10 7 7 7 3 3 7 8 10 5 4 4 4 6 8 8 7 6 5 5 4 3 3 3 4 4 4 5 6 6 7 7 7 6 6 5 4 4 4 5 5 4 4 3 3 3 2 2 1
9 11 6 7 8 6 6 7 7 6 9 9 8 9 8 7 6 6 5 5 4 3 3 4 5 5 5 5 6 6 7 8 8 8 8 7 6 5 6 6 6 5 5 5 4 4 3 3 2
7 7 7 7 6 8 6 10 9 11 11 12 12 10 10 10 8 7 5 5 4 4 4 4 5 6 6 6 7 8 8 8 8 8 7 7 6 6 6 6 6 6 5 5 5 5 4 4 3
6 9 10 9 7 6 4 10 5 6 6 7 8 8 8 8 7 7 6 5 5 5 4 5 5 6 6 6 8 9 8 8 9 8 7 7 7 6 6 6 6 6 5 5 5 4 4 3 3
Wind_Direction
331 335 44 52 50 45 314 244 165 122 81 79 95 95 99 96 141 148 120 134 132 136 133 125 123 121 117 115 110 105 101 98 94 92 91 88 87 85 84 83 82 83 83 83 81 80 78 73 70
333 355 46 57 79 53 277 253 151 138 152 135 91 88 79 67 84 111 123 140 135 135 133 128 125 124 121 118 113 109 104 101 97 93 93 91 89 87 86 84 82 83 84 84 83 81 77 70 66
345 43 72 70 112 186 219 207 155 136 132 101 81 74 104 127 122 133 148 142 132 131 130 132 128 126 124 123 119 113 109 105 102 97 95 93 91 88 87 85 84 83 84 84 83 81 76 69 66
41 40 55 75 245 229 192 192 154 121 76 74 96 69 74 146 150 138 140 139 131 130 132 136 132 129 127 126 125 119 114 110 106 102 98 96 95 92 90 89 87 86 85 85 83 81 74 69 66
55 68 64 26 264 269 190 184 156 130 128 101 99 96 35 348 124 131 141 139 135 134 135 137 133 131 130 129 128 125 120 116 112 108 104 101 100 98 95 93 90 89 88 86 84 81 73 68 65
52 67 102 221 256 273 209 189 139 129 130 115 106 105 77 118 130 141 141 137 138 139 137 136 134 133 131 130 129 128 126 122 119 116 112 107 105 102 99 97 95 93 92 89 86 82 74 68 64
99 106 173 201 219 228 214 178 146 144 143 151 129 111 133 159 146 140 135 132 134 138 137 135 136 134 131 129 129 130 128 126 124 121 115 108 105 104 101 99 99 97 96 92 88 82 74 67 62
124 117 188 200 192 225 206 156 157 147 158 134 121 140 171 190 149 131 128 131 135 139 143 142 139 135 132 130 132 133 132 130 128 124 120 116 112 109 104 100 103 103 101 97 92 84 73 62 54
96 98 207 205 192 220 204 145 120 127 114 72 97 166 173 155 138 131 131 134 145 153 156 153 150 146 141 140 142 139 138 137 135 134 134 124 117 113 109 113 110 110 108 105 98 84 64 48 38
103 173 225 220 198 201 195 164 152 107 99 82 58 80 130 145 148 151 158 161 164 169 172 168 162 159 155 153 146 144 143 146 145 147 146 137 135 132 126 124 123 120 117 112 104 85 56 44 24
162 205 248 276 233 189 169 163 150 129 164 179 165 155 150 159 162 165 170 171 173 172 173 176 172 169 166 158 161 160 154 157 160 162 161 149 140 135 129 126 125 126 126 103 90 68 47 48 37
196 241 248 276 303 175 170 157 148 164 199 187 168 158 160 169 176 178 176 177 172 173 179 178 176 173 174 166 170 170 167 172 175 178 170 156 155 158 162 163 168 170 170 173 171 170 183 132 97
216 255 274 281 320 215 147 164 163 195 205 142 149 157 170 178 185 186 179 175 174 179 181 180 177 177 176 172 176 177 179 181 181 179 177 169 167 172 176 180 182 188 187 187 193 206 214 224 272
204 225 276 292 301 293 146 175 147 204 141 136 155 173 183 186 186 183 183 183 185 185 184 180 179 178 175 177 179 179 181 180 179 184 184 178 175 176 178 182 188 195 194 191 190 201 209 229 247
168 165 283 268 231 244 124 176 212 191 144 155 174 184 190 197 192 195 194 192 190 189 186 185 183 179 179 180 179 176 179 178 183 189 188 183 181 180 180 184 193 199 193 188 186 197 202 233 247
137 152 212 253 193 181 146 218 240 178 158 176 189 194 199 206 206 207 202 199 194 189 188 189 186 184 184 183 182 178 179 181 187 188 189 191 188 185 183 189 200 194 181 181 187 190 205 235 245
160 181 200 241 209 172 169 222 248 176 176 191 199 204 208 213 219 217 209 204 197 193 190 190 189 188 189 186 184 183 181 187 189 189 193 197 196 190 187 194 198 183 180 188 191 195 198 230 250
183 173 184 208 214 170 196 236 255 204 190 203 207 211 215 217 221 214 209 206 199 194 191 191 191 191 186 183 183 186 191 194 193 192 195 195 197 194 191 197 196 181 182 193 196 206 208 226 245
166 166 189 215 215 174 209 234 245 230 212 219 222 220 221 226 230 217 207 200 192 191 190 191 191 190 185 187 191 194 200 197 198 196 194 197 200 199 196 196 195 189 195 203 199 191 207 231 195
180 183 197 250 305 181 222 249 255 239 223 216 215 219 221 224 226 215 205 194 191 191 192 192 192 190 190 194 192 189 181 186 197 197 199 200 200 200 198 198 196 194 197 201 196 185 188 215 181
217 197 188 187 91 86 187 277 260 256 235 235 228 222 219 213 211 207 198 196 191 192 192 192 193 192 193 186 174 164 167 178 195 202 204 207 204 201 198 200 197 194 193 202 202 195 196 216 207
224 211 178 161 150 218 182 244 266 243 249 238 232 227 225 220 210 203 194 193 194 200 195 195 193 192 191 184 181 180 190 200 204 193 194 199 203 203 201 199 198 196 196 203 204 201 203 205 217
201 171 162 167 163 185 214 211 271 262 245 243 233 227 224 215 203 197 190 187 185 185 185 190 189 192 189 188 189 189 195 195 178 172 178 187 196 200 197 196 193 194 195 201 199 197 200 205 211
139 98 74 64 97 226 213 191 262 231 218 232 231 221 212 197 181 169 152 141 135 133 151 168 177 190 187 187 189 190 188 178 169 172 167 168 164 165 175 177 182 189 192 200 203 199 198 208 215
152 130 111 147 220 239 207 208 246 239 228 224 225 215 195 174 163 159 155 151 147 140 142 156 166 178 178 177 184 186 181 173 174 171 166 154 146 139 143 141 147 158 172 177 175 174 189 197 202
184 157 160 176 203 251 229 229 247 251 261 259 232 194 172 173 171 169 166 158 152 146 137 138 146 151 154 155 160 159 158 154 153 148 143 140 133 128 114 106 100 93 94 101 112 113 116 114 178
160 185 149 128 124 192 243 266 295 264 262 244 201 181 186 182 176 170 162 156 152 147 141 141 133 121 121 126 123 120 123 125 125 120 114 110 108 105 96 92 89 80 77 78 86 81 72 74 63
158 146 123 141 158 218 255 246 237 226 230 228 215 206 197 183 175 166 159 155 149 138 119 112 116 114 106 105 109 110 109 112 115 112 107 103 98 95 93 86 84 78 71 68 74 70 56 59 43
142 158 155 154 171 174 230 257 221 210 211 213 214 204 192 185 178 166 156 147 134 119 112 109 108 106 100 99 101 102 100 102 103 102 102 102 95 92 91 89 84 78 71 66 70 65 55 53 38
170 175 158 172 207 193 201 260 252 224 248 230 217 199 186 176 165 156 150 142 135 129 121 115 111 108 105 105 102 101 100 100 100 100 97 96 94 87 88 88 86 80 74 70 71 67 56 51 36